[[{"header":{"parameterUnit":"m.s-1","parameterCategory":1,"la1":30.2991,"la2":30.254,"lo1":-89.0895,"lo2":-89.0444,"dy":0.0017,"dx":0.0017,"nx":28,"ny":28,"refTime":"2025-06-09T09:00:00:Z","depth":0,"parameterNumber":2,"parameterNumberName":"U-component_of_WINDS"},"data":[0,0,0,0,0,0,0,0,0,0,0,0,0,0,0,0,0,0,0,0,0,0,0,0,0,0,0,0,0,0,0,0,0,0,0,0,0,0,0,0,0,0,0,0,0,0,0,0,0,0,0,0,0,0,0,0,0,0,-0.9909,-0.9908,0,-0.9783,-0.9781,-0.978,-0.9705,-0.9705,-0.9705,-0.9704,-0.9573,-0.9569,-0.9566,0,0,0,0,0,0,0,0,0,0,0,0,0,-1.0085,-1.0082,-0.9909,-0.9908,-0.9906,-0.9783,-0.9781,-0.9779,-0.9705,-0.9705,-0.9705,-0.9704,-0.9574,-0.957,-0.9566,0,0,0,0,0,0,0,0,0,0,0,0,0,-0.9989,-1.0081,-0.9909,-0.9854,-0.9848,-0.9783,-0.9781,-0.9779,-0.9705,-0.9705,-0.9705,-0.9704,-0.9575,-0.957,-0.9565,-0.9545,0,0,-0.9551,-0.9548,0,0,0,0,0,0,0,0,-0.9994,-0.9982,-0.9864,-0.9858,-0.9851,-0.9759,-0.9795,-0.97,-0.9706,-0.976,-0.9704,-0.9704,-0.9635,-0.9625,-0.9602,-0.9538,-0.9533,-0.955,-0.9547,-0.9545,-0.9544,0,0,0,0,0,0,0,-1.0001,-0.9987,-0.9859,-0.9862,-0.9854,-0.9835,-0.9821,-0.9776,-0.9701,-0.9755,-0.9749,-0.9735,-0.9631,-0.9607,-0.9599,-0.9531,-0.955,-0.9546,-0.9543,-0.9541,-0.9444,-0.9444,0,0,0,0,0,0,-1.0017,-0.9993,-0.9863,-0.9855,-0.9923,-0.9833,-0.9817,-0.9789,-0.9702,-0.9688,-0.9736,-0.9732,-0.9616,-0.9604,-0.9594,-0.9564,-0.9545,-0.9541,-0.9538,-0.9443,-0.9444,-0.9444,0,0,0,0,0,0,-1.0021,-1.0006,-0.9868,-0.9923,-0.9904,-0.983,-0.98,-0.9787,-0.9763,-0.9687,-0.9673,-0.9725,-0.9615,-0.96,-0.9558,-0.9558,-0.9538,-0.9534,-0.9443,-0.9444,-0.9444,-0.9504,0,0,0,0,0,0,-1.0026,-1.0008,-0.9999,-0.9923,-0.9901,-0.9835,-0.98,-0.9785,-0.9755,-0.9749,-0.9673,-0.966,-0.9613,-0.9565,-0.9553,-0.9551,-0.953,-0.9443,-0.9443,-0.9444,-0.9501,-0.9506,-0.951,0,0,0,0,0,-1.0033,-1.0021,-0.9999,-0.9984,-0.9889,-0.9835,-0.9822,-0.9769,-0.9755,-0.9746,-0.9698,-0.9663,-0.956,-0.9561,-0.9547,-0.9544,-0.9442,-0.9443,-0.9444,-0.9499,-0.9505,-0.951,0,0,0,0,0,0,-1.0098,-1.001,-0.9985,-0.9948,-0.99,-0.9823,-0.9809,-0.9777,-0.9731,-0.9727,-0.9662,-0.9646,-0.9609,-0.9572,-0.9575,-0.9519,-0.9497,-0.9495,-0.9545,-0.955,-0.9554,-0.9564,-0.9526,0,0,0,0,0,-1.0108,-1.0072,-0.9997,-0.9971,-0.9948,-0.9884,-0.9858,-0.9821,-0.9768,-0.9747,-0.9695,-0.9644,-0.9601,-0.9573,-0.9529,-0.9496,-0.9478,-0.9486,-0.9491,-0.9495,-0.9494,-0.9474,-0.9477,-0.9447,-0.9447,-0.9447,0,0,-1.0129,-1.0076,-1.0057,-0.9983,-0.9941,-0.9905,-0.9867,-0.9829,-0.9802,-0.9741,-0.9697,-0.9658,-0.9597,-0.9559,-0.954,-0.9527,-0.9498,-0.9496,-0.95,-0.9496,-0.9475,-0.9478,-0.948,-0.9447,-0.9447,-0.9447,0,0,-1.0148,-1.0104,-1.0078,-1.0038,-0.9975,-0.9932,-0.9926,-0.9854,-0.9826,-0.9782,-0.9735,-0.9701,-0.9627,-0.9586,-0.9555,-0.9559,-0.9526,-0.9547,-0.957,-0.9551,-0.9553,-0.9555,-0.9557,-0.9558,-0.9546,-0.9546,-0.9546,0,-1.0181,-1.0125,-1.0069,-1.0035,-1.0004,-0.9948,-0.9922,-0.9884,-0.9811,-0.979,-0.9777,-0.9684,-0.9638,-0.959,-0.9592,-0.9569,-0.9559,-0.9555,-0.9558,-0.9559,-0.956,-0.956,-0.9561,-0.9549,-0.9548,-0.9548,-0.9548,0,-1.0168,-1.013,-1.0117,-1.0048,-1.0015,-0.9985,-0.9925,-0.9898,-0.9865,-0.9823,-0.9779,-0.9723,-0.9667,-0.9653,-0.9619,-0.96,-0.9594,-0.957,-0.9547,-0.9566,-0.9566,-0.9566,-0.9553,-0.9552,-0.9551,-0.955,0,0,-1.0224,-1.0126,-1.0122,-1.009,-1.0017,-0.9987,-0.9954,-0.99,-0.9878,-0.9829,-0.98,-0.9739,-0.9717,-0.9683,-0.9644,-0.9628,-0.9635,-0.9605,-0.9603,-0.9613,-0.961,-0.9628,-0.9629,-0.9612,-0.9612,-0.9612,-0.9615,0,-1.0232,-1.0171,-1.0121,-1.0079,-1.0043,-0.999,-0.9961,-0.9914,-0.9874,-0.9838,-0.9793,-0.9751,-0.9725,-0.9704,-0.9686,-0.9638,-0.9633,-0.9637,-0.9584,-0.9582,-0.96,-0.9629,-0.9648,-0.9654,-0.9614,-0.9614,-0.9614,0,-1.0233,-1.0188,-1.0142,-1.0074,-1.0057,-1.0032,-0.9979,-0.9945,-0.9889,-0.9862,-0.9824,-0.9784,-0.9746,-0.9728,-0.9675,-0.9679,-0.9654,-0.9627,-0.9626,-0.9619,-0.9599,-0.9622,-0.9654,-0.9655,-0.9613,-0.9614,-0.9614,0,-1.0279,-1.0206,-1.0169,-1.0143,-1.0063,-1.0047,-1.0012,-0.9957,-0.9928,-0.9881,-0.9861,-0.981,-0.9782,-0.9743,-0.969,-0.9682,-0.9643,-0.962,-0.9619,-0.962,-0.9613,-0.9614,-0.9641,-0.9598,-0.9598,-0.9598,-0.9598,0,-1.0293,-1.0267,-1.0188,-1.0166,-1.0136,-1.0078,-1.0049,-1.001,-0.9961,-0.993,-0.9881,-0.9852,-0.9784,-0.9748,-0.9706,-0.9669,-0.9656,-0.9633,-0.9622,-0.9637,-0.964,-0.9619,-0.9618,-0.9598,-0.9598,-0.9598,-0.9598,0,-1.0338,-1.0284,-1.0241,-1.0169,-1.015,-1.0131,-1.0068,-1.0045,-1.0003,-0.9964,-0.9951,-0.9885,-0.9839,-0.9783,-0.9719,-0.969,-0.9658,-0.9641,-0.9677,-0.967,-0.9672,-0.9673,-0.9687,-0.9686,-0.9644,-0.9644,-0.9645,0,-1.0351,-1.033,-1.0256,-1.0232,-1.0199,-1.0161,-1.0131,-1.0073,-1.0044,-0.998,-0.9964,-0.9915,-0.9872,-0.9801,-0.9747,-0.9698,-0.968,-0.9688,-0.9672,-0.9688,-0.968,-0.9682,-0.9679,-0.9692,-0.9693,-0.9694,-0.9694,0,-1.0379,-1.0353,-1.0313,-1.0263,-1.0229,-1.0187,-1.0143,-1.0126,-1.0059,-1.0028,-0.9982,-0.9949,-0.9884,-0.9835,-0.9779,-0.9743,-0.9707,-0.97,-0.9697,-0.9712,-0.9733,-0.9722,-0.9688,-0.97,-0.9699,-0.9699,-0.9698,-0.9698,-1.0408,-1.0387,-1.0332,-1.0288,-1.0249,-1.0209,-1.0183,-1.0138,-1.0099,-1.0042,-1.001,-0.9964,-0.9909,-0.9831,-0.9796,-0.9759,-0.9745,-0.9741,-0.974,-0.974,-0.9745,-0.974,-0.9748,-0.9748,-0.9748,-0.9747,-0.9747,0,-1.0434,-1.0396,-1.0356,-1.0296,-1.0262,-1.0233,-1.0182,-1.0155,-1.0116,-1.0068,-1.0028,-0.9974,-0.9927,-0.9869,-0.9818,-0.98,-0.9782,-0.9788,-0.9789,-0.9781,-0.9759,-0.9767,-0.9803,-0.9803,-0.9803,-0.9803,-0.9803,-0.9803,-1.0443,-1.0407,-1.0375,-1.0318,-1.028,-1.0235,-1.0209,-1.0172,-1.0134,-1.0076,-1.0037,-1.0,-0.9948,-0.9893,-0.9849,-0.9833,-0.9816,-0.9828,-0.9807,-0.9788,-0.9783,-0.9778,-0.9785,-0.9825,-0.9825,-0.9832,-0.9832,-0.9832]},{"header":{"parameterUnit":"m.s-1","parameterCategory":1,"la1":30.2991,"la2":30.254,"lo1":-89.0895,"lo2":-89.0444,"dy":0.0017,"dx":0.0017,"nx":28,"ny":28,"refTime":"2025-06-09T09:00:00:Z","depth":0,"parameterNumber":3,"parameterNumberName":"V-component_of_WINDS"},"data":[0,0,0,0,0,0,0,0,0,0,0,0,0,0,0,0,0,0,0,0,0,0,0,0,0,0,0,0,0,0,0,0,0,0,0,0,0,0,0,0,0,0,0,0,0,0,0,0,0,0,0,0,0,0,0,0,0,0,4.2267,4.2268,0,4.2295,4.2296,4.2296,4.2238,4.2236,4.2234,4.2232,4.2258,4.2261,4.2263,0,0,0,0,0,0,0,0,0,0,0,0,0,4.2161,4.2164,4.2267,4.2268,4.2268,4.2295,4.2296,4.2296,4.2238,4.2236,4.2234,4.2231,4.2258,4.226,4.2263,0,0,0,0,0,0,0,0,0,0,0,0,0,4.22,4.2164,4.2267,4.2243,4.2241,4.2295,4.2296,4.2296,4.2239,4.2236,4.2233,4.223,4.2257,4.226,4.2264,4.2343,0,0,4.2275,4.2276,0,0,0,0,0,0,0,0,4.2198,4.2204,4.2246,4.2244,4.2242,4.226,4.2268,4.2312,4.2239,4.2239,4.2232,4.2229,4.2261,4.2264,4.2275,4.2344,4.2345,4.2275,4.2277,4.2279,4.228,0,0,0,0,0,0,0,4.2195,4.2203,4.2278,4.2246,4.2244,4.2229,4.2232,4.2276,4.2266,4.2239,4.2235,4.2239,4.226,4.2272,4.2276,4.2345,4.2275,4.2278,4.2281,4.2282,4.2479,4.2482,0,0,0,0,0,0,4.2196,4.2201,4.2277,4.2279,4.2213,4.2233,4.2236,4.2257,4.2265,4.2263,4.2242,4.2236,4.2267,4.2271,4.2276,4.2368,4.2279,4.2282,4.2285,4.2476,4.248,4.2483,0,0,0,0,0,0,4.2194,4.2204,4.2276,4.2239,4.2247,4.2238,4.2263,4.2259,4.2272,4.2267,4.2264,4.2257,4.2265,4.2271,4.2327,4.2369,4.2284,4.2287,4.2473,4.2477,4.2481,4.2554,0,0,0,0,0,0,4.2191,4.2203,4.2234,4.224,4.2249,4.2327,4.2265,4.2262,4.2279,4.2272,4.228,4.2279,4.2263,4.2321,4.233,4.2372,4.229,4.2469,4.2475,4.248,4.2548,4.256,4.2571,0,0,0,0,0,4.2188,4.2253,4.2236,4.2245,4.2287,4.233,4.2335,4.2316,4.2282,4.2312,4.2309,4.2279,4.2363,4.2328,4.2337,4.2381,4.2466,4.2473,4.248,4.2542,4.2558,4.2571,0,0,0,0,0,0,4.225,4.2253,4.2234,4.2303,4.2317,4.232,4.2357,4.2333,4.2356,4.2349,4.2325,4.2327,4.2387,4.2389,4.235,4.2457,4.2409,4.2418,4.2453,4.2468,4.2479,4.2477,4.2293,0,0,0,0,0,4.2273,4.2308,4.2307,4.2368,4.2376,4.2366,4.2383,4.2368,4.2381,4.2386,4.2387,4.24,4.2429,4.2449,4.2475,4.2548,4.2549,4.2583,4.2595,4.2604,4.2612,4.265,4.2665,4.2506,4.2506,4.2505,0,0,4.2318,4.2324,4.2347,4.2381,4.239,4.2425,4.2371,4.2411,4.2437,4.2392,4.2444,4.2446,4.2458,4.2523,4.2551,4.2526,4.2656,4.2613,4.2621,4.2623,4.2658,4.2674,4.2687,4.251,4.2509,4.2509,0,0,4.2419,4.2427,4.2478,4.2488,4.2503,4.2495,4.2508,4.2515,4.2514,4.2567,4.2533,4.2564,4.2615,4.2625,4.2637,4.2743,4.2715,4.2752,4.2813,4.285,4.2863,4.2874,4.291,4.2924,4.276,4.276,4.276,0,4.2473,4.2526,4.2507,4.255,4.2565,4.2528,4.2579,4.2589,4.2611,4.2622,4.2595,4.2659,4.2664,4.273,4.2756,4.2768,4.278,4.275,4.2863,4.2873,4.2883,4.2918,4.2932,4.2764,4.2764,4.2764,4.2763,0,4.2592,4.2629,4.2669,4.2692,4.2712,4.2759,4.2746,4.2769,4.2752,4.2748,4.2801,4.2807,4.2834,4.2849,4.2833,4.2913,4.2897,4.2867,4.2817,4.2903,4.2935,4.2948,4.2771,4.2769,4.2768,4.2767,0,0,4.2731,4.2744,4.2759,4.2768,4.2782,4.281,4.2855,4.2882,4.2902,4.2919,4.2955,4.2999,4.2971,4.2985,4.297,4.3003,4.3085,4.2968,4.2968,4.2989,4.3172,4.3194,4.3209,4.3068,4.307,4.3072,4.317,0,4.283,4.2908,4.2892,4.2968,4.3002,4.2967,4.3006,4.3018,4.3015,4.3043,4.3039,4.3071,4.3032,4.304,4.3072,4.3069,4.3121,4.3061,4.31,4.3101,4.3096,4.3226,4.3249,4.3342,4.3183,4.3185,4.3187,0,4.2955,4.2978,4.3057,4.3065,4.3078,4.3114,4.3137,4.3165,4.3178,4.3173,4.3189,4.3168,4.3212,4.3163,4.3222,4.3182,4.3197,4.3198,4.3201,4.3203,4.3148,4.323,4.3371,4.3384,4.3206,4.3205,4.3203,0,4.3047,4.3097,4.3151,4.3161,4.3172,4.3197,4.3203,4.3213,4.323,4.3251,4.3262,4.3288,4.3301,4.3321,4.3307,4.3273,4.3368,4.3318,4.3365,4.3365,4.3385,4.3383,4.3529,4.3397,4.3397,4.3397,4.3396,0,4.3158,4.3208,4.3193,4.3226,4.328,4.3262,4.3316,4.3317,4.3327,4.3358,4.333,4.336,4.3341,4.3369,4.3359,4.3409,4.3416,4.3412,4.3409,4.3414,4.3414,4.3422,4.3415,4.34,4.34,4.3399,4.3398,0,4.327,4.3262,4.3318,4.3324,4.3327,4.3366,4.3371,4.3401,4.3397,4.3438,4.3446,4.3439,4.3471,4.346,4.3494,4.3487,4.3551,4.3539,4.3546,4.3543,4.3589,4.3585,4.3744,4.3763,4.362,4.3622,4.3623,0,4.334,4.3377,4.3388,4.3408,4.3416,4.3448,4.3466,4.345,4.3469,4.3487,4.3515,4.3545,4.3568,4.3621,4.3619,4.3645,4.3633,4.3687,4.3636,4.3641,4.3632,4.3629,4.3633,4.3696,4.3698,4.3699,4.37,0,4.3466,4.346,4.3487,4.3514,4.3536,4.3556,4.3573,4.359,4.3575,4.3598,4.3632,4.365,4.3685,4.3715,4.3739,4.3743,4.3719,4.3717,4.3728,4.3734,4.3736,4.3734,4.3572,4.3713,4.3711,4.371,4.371,4.3709,4.3558,4.3589,4.3602,4.3633,4.3644,4.3661,4.369,4.3689,4.3717,4.3745,4.3734,4.3772,4.3784,4.3813,4.3821,4.385,4.3829,4.3847,4.3851,4.3855,4.386,4.3733,4.3855,4.3854,4.3854,4.3854,4.3853,0,4.368,4.3687,4.3716,4.3741,4.3766,4.3743,4.376,4.3782,4.3816,4.383,4.3853,4.3891,4.392,4.3921,4.3948,4.3971,4.396,4.3978,4.3975,4.3977,4.3878,4.3865,4.3986,4.3986,4.3986,4.3986,4.3986,4.3986,4.3747,4.3799,4.3795,4.3852,4.3858,4.3896,4.3908,4.3923,4.3933,4.3977,4.4002,4.4002,4.401,4.4037,4.4063,4.4062,4.4072,4.4094,4.4089,4.3997,4.3984,4.3971,4.3958,4.4097,4.4097,4.4185,4.4186,4.4187]}]]